[[{"header":{"parameterUnit":"m.s-1","parameterCategory":1,"la1":30.2991,"la2":30.254,"lo1":-89.0895,"lo2":-89.0444,"dy":0.0017,"dx":0.0017,"nx":28,"ny":28,"refTime":"2025-07-13T03:00:00:Z","depth":0,"parameterNumber":2,"parameterNumberName":"U-component_of_WINDS"},"data":[0,0,0,0,0,0,0,0,0,0,0,0,0,0,0,0,0,0,0,0,0,0,0,0,0,0,0,0,0,0,0,0,0,0,0,0,0,0,0,0,0,0,0,0,0,0,0,0,0,0,0,0,0,0,0,0,0,0,-0.9496,-0.9495,0,-0.9429,-0.9428,-0.9427,-0.9371,-0.937,-0.937,-0.9369,-0.9299,-0.9298,-0.9297,0,0,0,0,0,0,0,0,0,0,0,0,0,-0.9575,-0.9574,-0.9496,-0.9495,-0.9494,-0.9429,-0.9428,-0.9427,-0.9371,-0.937,-0.9369,-0.9369,-0.93,-0.9298,-0.9297,0,0,0,0,0,0,0,0,0,0,0,0,0,-0.9528,-0.9574,-0.9496,-0.9459,-0.9454,-0.9429,-0.9428,-0.9427,-0.9371,-0.937,-0.9369,-0.9368,-0.93,-0.9298,-0.9296,-0.9303,0,0,-0.9291,-0.929,0,0,0,0,0,0,0,0,-0.9531,-0.9525,-0.9465,-0.9461,-0.9457,-0.9407,-0.943,-0.9385,-0.9371,-0.9403,-0.9369,-0.9368,-0.9336,-0.9331,-0.932,-0.93,-0.9297,-0.929,-0.9289,-0.9288,-0.9288,0,0,0,0,0,0,0,-0.9534,-0.9528,-0.9469,-0.9464,-0.9459,-0.9445,-0.9437,-0.9422,-0.9375,-0.94,-0.9396,-0.9389,-0.9333,-0.9322,-0.9318,-0.9296,-0.929,-0.9289,-0.9288,-0.9287,-0.9277,-0.9278,0,0,0,0,0,0,-0.9543,-0.9531,-0.9472,-0.9467,-0.9492,-0.9444,-0.9435,-0.9424,-0.9375,-0.9367,-0.9389,-0.9386,-0.9326,-0.9321,-0.9316,-0.932,-0.9288,-0.9287,-0.9286,-0.9276,-0.9277,-0.9278,0,0,0,0,0,0,-0.9545,-0.9538,-0.9474,-0.9498,-0.9489,-0.9444,-0.9431,-0.9423,-0.9412,-0.9367,-0.9359,-0.9387,-0.9325,-0.9318,-0.9307,-0.9317,-0.9286,-0.9284,-0.9275,-0.9277,-0.9278,-0.9329,0,0,0,0,0,0,-0.9548,-0.9539,-0.9542,-0.9498,-0.9488,-0.9467,-0.9432,-0.9423,-0.9409,-0.9404,-0.9362,-0.9355,-0.9324,-0.931,-0.9305,-0.9314,-0.9283,-0.9274,-0.9276,-0.9278,-0.9326,-0.9332,-0.9337,0,0,0,0,0,-0.9551,-0.9558,-0.9542,-0.9535,-0.9489,-0.9467,-0.9461,-0.9426,-0.941,-0.9412,-0.9383,-0.9356,-0.9317,-0.9309,-0.9303,-0.9311,-0.9273,-0.9275,-0.9277,-0.9324,-0.9331,-0.9337,0,0,0,0,0,0,-0.9604,-0.9552,-0.9533,-0.9527,-0.9502,-0.9458,-0.9459,-0.9435,-0.9413,-0.941,-0.9366,-0.9358,-0.9351,-0.933,-0.9322,-0.9315,-0.9292,-0.9292,-0.9329,-0.9335,-0.9341,-0.9346,-0.9281,0,0,0,0,0,-0.9615,-0.9601,-0.9557,-0.9556,-0.9544,-0.9504,-0.9493,-0.9468,-0.9441,-0.943,-0.94,-0.9374,-0.9356,-0.9344,-0.9325,-0.9323,-0.9314,-0.9326,-0.9332,-0.9336,-0.9337,-0.9335,-0.934,-0.9285,-0.9285,-0.9285,0,0,-0.9637,-0.9607,-0.9602,-0.9566,-0.9544,-0.9531,-0.9495,-0.9483,-0.9473,-0.9427,-0.9415,-0.9392,-0.936,-0.9354,-0.9349,-0.9336,-0.9351,-0.9339,-0.9343,-0.9341,-0.9338,-0.9343,-0.9348,-0.9286,-0.9286,-0.9286,0,0,-0.9672,-0.9648,-0.9644,-0.9623,-0.959,-0.9563,-0.9562,-0.9522,-0.9505,-0.9492,-0.9457,-0.9445,-0.9414,-0.9393,-0.9378,-0.9406,-0.938,-0.9401,-0.9428,-0.9427,-0.9431,-0.9435,-0.9444,-0.9448,-0.9402,-0.9402,-0.9402,0,-0.9704,-0.9683,-0.9646,-0.9636,-0.9621,-0.958,-0.9576,-0.9557,-0.9519,-0.951,-0.9496,-0.9457,-0.9433,-0.9421,-0.9428,-0.9417,-0.9415,-0.9405,-0.9434,-0.9437,-0.944,-0.9448,-0.9452,-0.9405,-0.9404,-0.9404,-0.9404,0,-0.9724,-0.971,-0.9712,-0.9676,-0.9662,-0.9655,-0.9617,-0.9607,-0.9584,-0.9559,-0.9546,-0.9515,-0.9489,-0.9484,-0.9461,-0.9469,-0.9462,-0.9442,-0.9417,-0.9448,-0.9456,-0.9459,-0.9409,-0.9408,-0.9407,-0.9406,0,0,-0.9789,-0.9734,-0.9735,-0.9719,-0.968,-0.9668,-0.966,-0.9635,-0.9627,-0.9602,-0.9594,-0.957,-0.9551,-0.9534,-0.9508,-0.9507,-0.9531,-0.9486,-0.9485,-0.9495,-0.9538,-0.9554,-0.9558,-0.9514,-0.9514,-0.9515,-0.9541,0,-0.9817,-0.9799,-0.9766,-0.9759,-0.9746,-0.9707,-0.9699,-0.9675,-0.9651,-0.9637,-0.961,-0.9594,-0.957,-0.9559,-0.9556,-0.9529,-0.9539,-0.9526,-0.9505,-0.9505,-0.9514,-0.9562,-0.9578,-0.9604,-0.9543,-0.9544,-0.9544,0,-0.9847,-0.9825,-0.9817,-0.9779,-0.9772,-0.9766,-0.9741,-0.9727,-0.9699,-0.9681,-0.9664,-0.9635,-0.9624,-0.9602,-0.9587,-0.9579,-0.9569,-0.9554,-0.9554,-0.955,-0.9526,-0.9559,-0.9611,-0.9616,-0.9548,-0.9548,-0.9548,0,-0.9895,-0.9864,-0.9855,-0.9842,-0.9798,-0.9794,-0.9776,-0.9746,-0.9733,-0.9711,-0.9702,-0.9679,-0.9667,-0.9649,-0.9616,-0.9603,-0.9604,-0.9579,-0.959,-0.9591,-0.9591,-0.9592,-0.9642,-0.9585,-0.9585,-0.9585,-0.9585,0,-0.993,-0.9926,-0.9876,-0.9871,-0.9866,-0.9828,-0.9824,-0.9801,-0.9775,-0.9765,-0.973,-0.9721,-0.9677,-0.9663,-0.9637,-0.9629,-0.9623,-0.9609,-0.9602,-0.9612,-0.9614,-0.9604,-0.9602,-0.9586,-0.9586,-0.9586,-0.9586,0,-0.9982,-0.9949,-0.9936,-0.9895,-0.9885,-0.9883,-0.9848,-0.9841,-0.9816,-0.9803,-0.9798,-0.9759,-0.974,-0.9706,-0.9677,-0.966,-0.9657,-0.9645,-0.9667,-0.9662,-0.9675,-0.9674,-0.9721,-0.9725,-0.9666,-0.9667,-0.9667,0,-1.0006,-1.0003,-0.9962,-0.9952,-0.9935,-0.992,-0.9907,-0.987,-0.9857,-0.9825,-0.9822,-0.9801,-0.9782,-0.9755,-0.9724,-0.9702,-0.9689,-0.9707,-0.9686,-0.9696,-0.969,-0.969,-0.969,-0.9712,-0.9713,-0.9714,-0.9714,0,-1.0053,-1.0036,-1.0019,-0.9996,-0.9981,-0.9961,-0.9939,-0.9934,-0.9891,-0.9879,-0.986,-0.9846,-0.9818,-0.9798,-0.9772,-0.9752,-0.9726,-0.9721,-0.9723,-0.9733,-0.9746,-0.9739,-0.968,-0.972,-0.972,-0.9719,-0.9719,-0.9719,-1.0091,-1.0086,-1.0057,-1.0039,-1.0018,-0.9999,-0.9991,-0.9965,-0.9948,-0.9922,-0.9901,-0.9884,-0.9856,-0.9819,-0.9801,-0.9787,-0.9775,-0.9777,-0.9777,-0.9778,-0.9783,-0.9748,-0.9783,-0.9782,-0.9782,-0.9782,-0.9782,0,-1.0136,-1.0115,-1.0098,-1.0069,-1.0055,-1.0032,-1.0007,-0.9997,-0.9982,-0.9958,-0.9941,-0.9919,-0.99,-0.9867,-0.9845,-0.984,-0.9828,-0.9836,-0.9836,-0.9832,-0.9795,-0.9796,-0.9846,-0.9846,-0.9846,-0.9846,-0.9846,-0.9846,-1.0157,-1.0148,-1.0128,-1.0108,-1.0087,-1.007,-1.0058,-1.004,-1.0021,-0.9998,-0.9982,-0.9961,-0.9934,-0.991,-0.9891,-0.9882,-0.9875,-0.9887,-0.9874,-0.984,-0.9834,-0.9828,-0.9829,-0.9886,-0.9886,-0.9912,-0.9912,-0.9913]},{"header":{"parameterUnit":"m.s-1","parameterCategory":1,"la1":30.2991,"la2":30.254,"lo1":-89.0895,"lo2":-89.0444,"dy":0.0017,"dx":0.0017,"nx":28,"ny":28,"refTime":"2025-07-13T03:00:00:Z","depth":0,"parameterNumber":3,"parameterNumberName":"V-component_of_WINDS"},"data":[0,0,0,0,0,0,0,0,0,0,0,0,0,0,0,0,0,0,0,0,0,0,0,0,0,0,0,0,0,0,0,0,0,0,0,0,0,0,0,0,0,0,0,0,0,0,0,0,0,0,0,0,0,0,0,0,0,0,3.7538,3.7538,0,3.7493,3.7492,3.7492,3.75,3.7501,3.7501,3.7502,3.7449,3.7446,3.7444,0,0,0,0,0,0,0,0,0,0,0,0,0,3.7625,3.7624,3.7538,3.7538,3.7537,3.7493,3.7492,3.7492,3.75,3.7501,3.7502,3.7503,3.7449,3.7447,3.7444,0,0,0,0,0,0,0,0,0,0,0,0,0,3.7584,3.7623,3.7538,3.7536,3.7535,3.7493,3.7492,3.7491,3.7499,3.7501,3.7502,3.7503,3.745,3.7447,3.7444,3.7399,0,0,3.7434,3.7432,0,0,0,0,0,0,0,0,3.7587,3.7581,3.7537,3.7536,3.7535,3.7503,3.7503,3.746,3.7499,3.7513,3.7502,3.7504,3.7465,3.7461,3.7449,3.7396,3.7394,3.7433,3.7431,3.743,3.7429,0,0,0,0,0,0,0,3.759,3.7583,3.752,3.7536,3.7535,3.7535,3.7531,3.7495,3.7482,3.7512,3.7512,3.7507,3.7465,3.7453,3.7448,3.7393,3.7433,3.743,3.7428,3.7427,3.73,3.7299,0,0,0,0,0,0,3.7594,3.7585,3.7521,3.7519,3.7565,3.7533,3.7528,3.7512,3.7483,3.748,3.7506,3.7508,3.7458,3.7452,3.7446,3.7391,3.743,3.7427,3.7425,3.7301,3.73,3.7298,0,0,0,0,0,0,3.7596,3.7588,3.7523,3.7552,3.7544,3.753,3.7512,3.7511,3.7498,3.7479,3.7476,3.7496,3.7458,3.7451,3.7411,3.739,3.7425,3.7422,3.7303,3.7301,3.7299,3.7282,0,0,0,0,0,0,3.7598,3.7589,3.7573,3.7552,3.7542,3.749,3.7511,3.7509,3.7493,3.7495,3.7469,3.7465,3.7459,3.7416,3.7408,3.7386,3.742,3.7305,3.7302,3.73,3.7284,3.7279,3.7275,0,0,0,0,0,3.7601,3.7568,3.7572,3.7565,3.7523,3.7489,3.7484,3.7479,3.7492,3.7475,3.7462,3.7466,3.7394,3.7412,3.7402,3.7379,3.7306,3.7303,3.73,3.7286,3.728,3.7275,0,0,0,0,0,0,3.7585,3.7566,3.757,3.7529,3.7511,3.7491,3.7469,3.7473,3.7449,3.7451,3.7444,3.7437,3.7397,3.7384,3.7404,3.7334,3.7351,3.7346,3.7344,3.7338,3.7334,3.7337,3.7417,0,0,0,0,0,3.7577,3.7554,3.7537,3.7503,3.7494,3.7483,3.7468,3.7467,3.7446,3.7438,3.7423,3.7401,3.7373,3.7355,3.7329,3.7282,3.7276,3.7262,3.7257,3.7254,3.7249,3.7223,3.7217,3.7288,3.7288,3.7288,0,0,3.7559,3.7546,3.7531,3.7499,3.7485,3.7459,3.7477,3.7448,3.7428,3.7433,3.7395,3.7383,3.7358,3.7315,3.7295,3.7303,3.7228,3.725,3.7247,3.7244,3.7219,3.7213,3.7207,3.7286,3.7286,3.7286,0,0,3.7514,3.7502,3.7473,3.7459,3.7438,3.7431,3.7424,3.7404,3.7396,3.7359,3.7362,3.7337,3.7289,3.7272,3.7257,3.7206,3.7208,3.7197,3.7173,3.7148,3.7143,3.7138,3.7119,3.7112,3.7193,3.7193,3.7193,0,3.7494,3.7458,3.7456,3.7428,3.7414,3.742,3.7388,3.7374,3.7344,3.7333,3.7343,3.7285,3.7268,3.7221,3.7209,3.7196,3.7187,3.72,3.7144,3.7139,3.7134,3.7116,3.7109,3.7192,3.7192,3.7192,3.7192,0,3.7434,3.7408,3.7387,3.7361,3.7344,3.7314,3.7306,3.7289,3.7288,3.728,3.7241,3.7222,3.7192,3.718,3.7179,3.7132,3.7138,3.7146,3.7163,3.7126,3.7109,3.7102,3.719,3.719,3.7191,3.7191,0,0,3.7376,3.7351,3.7343,3.7332,3.731,3.7289,3.7259,3.7232,3.7216,3.7196,3.7169,3.713,3.7138,3.712,3.7117,3.7095,3.7055,3.7105,3.7105,3.7096,3.7002,3.6996,3.6988,3.7057,3.7056,3.7055,3.7004,0,3.7328,3.7278,3.7277,3.723,3.7205,3.7211,3.7185,3.7167,3.7159,3.7135,3.7125,3.7097,3.7109,3.7099,3.7078,3.7065,3.7036,3.7068,3.7031,3.7029,3.7036,3.6979,3.6972,3.6925,3.6997,3.6996,3.6995,0,3.7266,3.7247,3.7198,3.718,3.717,3.7147,3.7122,3.71,3.7079,3.7075,3.7056,3.7056,3.7023,3.7043,3.6997,3.7019,3.7003,3.6994,3.6992,3.6988,3.701,3.6972,3.691,3.6903,3.6985,3.6986,3.6987,0,3.7228,3.7189,3.7155,3.7145,3.7124,3.7107,3.7097,3.7078,3.7062,3.7039,3.7029,3.7002,3.6987,3.6965,3.6957,3.6972,3.6911,3.6929,3.6904,3.6904,3.689,3.6891,3.6824,3.6882,3.6882,3.6882,3.6882,0,3.7175,3.7145,3.7138,3.7117,3.7083,3.7081,3.7047,3.7037,3.702,3.6996,3.6999,3.6975,3.6967,3.6941,3.6934,3.6897,3.689,3.6884,3.6882,3.6883,3.6884,3.6872,3.6875,3.688,3.688,3.6881,3.6881,0,3.7126,3.7121,3.7084,3.7067,3.7062,3.7038,3.7022,3.7001,3.6994,3.6963,3.6956,3.6943,3.6913,3.6904,3.6867,3.6862,3.6818,3.682,3.6826,3.6826,3.6801,3.6803,3.6723,3.6712,3.6778,3.6777,3.6776,0,3.7092,3.707,3.7051,3.7036,3.7026,3.7002,3.6986,3.6982,3.6966,3.6941,3.6923,3.6894,3.6871,3.6823,3.6809,3.6781,3.6781,3.6755,3.6777,3.6779,3.678,3.6782,3.6779,3.6751,3.675,3.675,3.6749,0,3.7032,3.7031,3.701,3.6987,3.697,3.6951,3.6933,3.692,3.6914,3.6894,3.6866,3.6848,3.6812,3.6783,3.6755,3.6742,3.6743,3.6743,3.6736,3.6736,3.674,3.6737,3.6814,3.6744,3.6745,3.6745,3.6746,3.6746,3.6989,3.697,3.6954,3.693,3.6917,3.69,3.688,3.6871,3.6848,3.682,3.6818,3.6787,3.6767,3.6729,3.6715,3.6689,3.6696,3.6685,3.6682,3.668,3.6678,3.6746,3.6684,3.6684,3.6684,3.6684,3.6684,0,3.6929,3.692,3.6898,3.6874,3.6855,3.6862,3.6842,3.6825,3.6799,3.6781,3.6759,3.6725,3.6697,3.6682,3.6654,3.6636,3.6636,3.6628,3.6629,3.6626,3.6673,3.6682,3.6629,3.6629,3.6629,3.6629,3.6629,3.6629,3.6896,3.6863,3.686,3.682,3.681,3.6781,3.677,3.6754,3.674,3.6703,3.6681,3.6672,3.6655,3.6625,3.66,3.6596,3.6584,3.6576,3.6573,3.6617,3.6623,3.6628,3.6636,3.6574,3.6574,3.6527,3.6527,3.6527]}]]